Weather Roundup
Issued by NWS Corpus Christi, TX

Home | Current Version | Previous Version | Text Only | Print | Product List | Glossary On
Versions: 1 2 3 4 5 6 7 8 9 10 11 12 13 14 15 16 17 18 19 20 21 22 23 24 25 26 27 28 29 30 31 32 33 34 35 36 37 38 39 40 41 42 43 44 45 46 47 48 49 50
465
ASUS44 KCRP 291810
HRRCRP

SOUTH TEXAS REGIONAL WEATHER ROUNDUP
NATIONAL WEATHER SERVICE CORPUS CHRISTI TX
100 PM CDT SUN MAY 29 2016


TXZ229>244-291900-
...CORPUS CHRISTI AREA OBSERVATIONS...

CITY           SKY/WX    TMP DP  RH WIND       PRES   REMARKS
CORPUS CHRISTI PTSUNNY   88  74  63 E18G25    30.04F HX  96
NAS CORPUS CHR MOSUNNY   87  77  72 E20       30.05F HX  99
ROCKPORT       SUNNY     85  74  69 SE17G23   30.04F HX  92
KINGSVILLE NAS LGT RAIN  88  77  69 E16G25    30.04F HX 100
ALICE          PTSUNNY   88  71  57 SE17G30   30.04F HX  94
FALFURRIAS     PTSUNNY   89  72  58 E14G20    30.03F HX  95
$$

...VICTORIA AREA OBSERVATIONS...

CITY           SKY/WX    TMP DP  RH WIND       PRES   REMARKS
VICTORIA       PTSUNNY   85  74  69 E13       30.06R HX  92
BEEVILLE       PTSUNNY   84  75  74 SE10      30.06S HX  93
PLEASANTON     MOSUNNY   86  71  59 SE12      30.08F HX  91
SAN ANTONIO    MOSUNNY   85  69  58 NE7       30.10F
$$

...LAREDO AREA OBSERVATIONS...

CITY           SKY/WX    TMP DP  RH WIND       PRES   REMARKS
LAREDO         CLOUDY    89  72  56 E16       30.03F HX  96
COTULLA        PTSUNNY   89  71  55 SE14G21   30.04F HX  95
DEL RIO        MOSUNNY   86  69  56 SE20G30   30.05F HX  90
MCALLEN        PTSUNNY   92  74  55 E15       30.00F HX 101
HEBBRONVILLE   PTSUNNY   87  71  59 E21       30.05F HX  92
$$

...OTHER TEXAS OBSERVATIONS...

CITY           SKY/WX    TMP DP  RH WIND       PRES   REMARKS
BROWNSVILLE    PTSUNNY   87  76  69 E16       30.03S HX  97
HOUSTON        CLOUDY    84  69  60 E8        30.08F
COL. STATION   SUNNY     86  71  60 SE12G21   30.08F HX  91
AUSTIN         PTSUNNY   84  66  54 S5        30.05F
WACO           SUNNY     86  71  60 SE14      30.07F HX  91
FORT WORTH     CLOUDY    86  67  52 VRB3      30.07F
WICHITA FALLS  SUNNY     84  60  44 VRB5      30.09F
LUBBOCK        PTSUNNY   80  62  54 S17       30.15F
EL PASO        MOSUNNY   88  16   7 S7        30.10F
$$

...MARINE OBSERVATIONS...

STATION/POSITION TIME  SKY/WX   TEMP    WIND        PRES    VSBY  WAVE   SWELL
                                AIR SEA DIR/SP/G                  HT/PER HT/PER
                 (UTC)          (F)     (DEG/KT/KT) (MB)    (MI)  (FT/S) (FT/S)
PORT ARANSAS     1800            81 83  100/ 19/ 21 1018.1F
BUOY 90 E PORT A 1750            80 81   80/ 12/ 14 1018.9F         3/ 5   2/ 6
BUOY 45 SE BAFFI 1750            81 81  110/ 16/ 17 1017.3F         4/ 7   2/ 7
BUOY 200 E PT IS 1750                                 N/A           3/ 6   3/ 6
BUOY 15 E GALVES 1750            80 84  110/  6/  8 1019.6F         2/ 6   2/ 6
$$




USA.gov is the U.S. government's official web portal to all federal, state and local government web resources and services.